Coraopolis, PA

4:36 AM EST on February 22, 2017 (GMT -0500)
Pittsburgh International

Weather History for KPIT - February, 2013

Change the Weather History Date:

Saturday, February 23, 2013

  Actual Average Record
Temperature  
Mean Temperature 36 °F 33 °F  
Max Temperature 42 °F 41 °F 70 °F (1922)
Min Temperature 30 °F 24 °F -1 °F (1963)
Degree Days  
Heating Degree Days 29 32  
Month to date heating degree days 862 791  
Since 1 July heating degree days 3962 4100  
Cooling Degree Days 0 0  
Month to date cooling degree days 0 0  
Year to date cooling degree days 0 0  
Moisture  
Dew Point 31 °F    
Average Humidity 79    
Maximum Humidity 92    
Minimum Humidity 65    
Precipitation  
Precipitation T in 0.09 in 2.29 in (1975)
Month to date precipitation 1.01 1.96  
Year to date precipitation 3.45 4.66  
Snow  
Snow 0.00 in 0.40 in 6.50 in (1914)
Month to date snowfall 15.4 8.4  
Since 1 July snowfall 41.3 30.9  
Snow Depth 0.00 in    
Sea Level Pressure  
Sea Level Pressure 29.94 in    
Wind  
Wind Speed 4 mph (NW)    
Max Wind Speed 16 mph    
Max Gust Speed 18 mph    
Visibility 7 miles    
Events Fog , Rain    
T = Trace of Precipitation, MM = Missing Value Source: NWS Daily Summary

Daily Weather History Graph

Daily Weather History Graph

Search for Another Location

Airport or City:

Trip Planner

Search our weather history database for the weather conditions in past years. The results will help you decide how hot, cold, wet, or windy it might be!

Date:

Astronomy

Feb. 23, 2013 Rise Set
Actual Time 7:03 AM EST 6:05 PM EST
Civil Twilight 6:35 AM EST 6:33 PM EST
Nautical Twilight 6:03 AM EST 7:05 PM EST
Astronomical Twilight 5:32 AM EST 7:36 PM EST
Moon 4:14 PM EST (2/23) 5:25 AM EST (2/23)
Length of Visible Light 11h 57m
Length of Day
11h 02m
Waxing Gibbous, 95% of the Moon is Illuminated
Feb 23
Waxing Gibbous
Feb 25
Full
Mar 4
Last Quarter
Mar 11
New
Mar 19
First Quarter

Hourly Weather History & Observations

Time (EST) Temp. Windchill Dew Point Humidity Pressure Visibility Wind Dir Wind Speed Gust Speed Precip Events Conditions
12:51 AM 34.0 °F 29.8 °F 30.9 °F 89% 30.01 in 7.0 mi East 4.6 mph - N/A   Overcast
1:51 AM 34.0 °F - 30.0 °F 85% 30.01 in 7.0 mi Calm Calm - N/A   Overcast
2:51 AM 34.0 °F - 30.0 °F 85% 29.99 in 7.0 mi Calm Calm - N/A   Overcast
3:18 AM 33.8 °F - 30.2 °F 87% 29.93 in 7.0 mi Calm Calm - N/A   Overcast
3:51 AM 34.0 °F - 30.0 °F 85% 29.96 in 7.0 mi Calm Calm - N/A   Overcast
4:51 AM 33.1 °F - 30.0 °F 89% 29.97 in 7.0 mi Calm Calm - N/A   Overcast
5:51 AM 34.0 °F 28.8 °F 30.0 °F 85% 29.99 in 7.0 mi NW 5.8 mph - N/A   Overcast
6:51 AM 33.8 °F - 30.2 °F 87% 29.92 in 6.0 mi Calm Calm - N/A   Overcast
7:32 AM 33.8 °F 30.8 °F 30.2 °F 87% 29.92 in 5.0 mi NNW 3.5 mph - N/A   Overcast
7:51 AM 33.1 °F 26.9 °F 30.9 °F 92% 29.98 in 2.5 mi NNW 6.9 mph - 0.00 in   Light Drizzle
8:14 AM 33.8 °F 29.6 °F 30.2 °F 87% 29.93 in 0.5 mi NNW 4.6 mph - 0.00 in   Light Drizzle
8:23 AM 33.8 °F 28.6 °F 30.2 °F 87% 29.93 in 0.5 mi NNW 5.8 mph - 0.00 in   Light Drizzle
8:51 AM 33.1 °F - 32.0 °F 96% 29.98 in 0.5 mi Calm Calm - 0.00 in Fog , Rain Light Rain
9:51 AM 34.0 °F - 33.1 °F 96% 29.98 in 2.0 mi Calm Calm - 0.00 in   Overcast
10:19 AM 35.6 °F - 33.8 °F 93% 29.92 in 3.0 mi Calm Calm - N/A   Overcast
10:51 AM 36.0 °F - 33.1 °F 89% 29.97 in 3.0 mi Calm Calm - N/A   Overcast
11:51 AM 37.9 °F - 33.1 °F 83% 29.96 in 6.0 mi Calm Calm - N/A   Haze
12:51 PM 37.9 °F 35.5 °F 34.0 °F 86% 29.93 in 6.0 mi SSW 3.5 mph - N/A   Overcast
1:51 PM 39.9 °F 35.8 °F 34.0 °F 79% 29.92 in 7.0 mi SW 5.8 mph - N/A   Overcast
2:51 PM 41.0 °F 35.8 °F 32.0 °F 70% 29.90 in 10.0 mi WSW 8.1 mph - N/A   Overcast
3:40 PM 42.8 °F 36.6 °F 32.0 °F 66% 29.86 in 10.0 mi West 11.5 mph - N/A   Overcast
3:51 PM 42.1 °F 36.1 °F 33.1 °F 70% 29.91 in 10.0 mi WNW 10.4 mph - N/A   Overcast
4:51 PM 41.0 °F 38.0 °F 30.0 °F 65% 29.89 in 10.0 mi West 4.6 mph - N/A   Mostly Cloudy
5:51 PM 39.9 °F - 30.0 °F 68% 29.91 in 10.0 mi Calm Calm - N/A   Mostly Cloudy
6:51 PM 37.9 °F 33.5 °F 30.0 °F 73% 29.91 in 10.0 mi NW 5.8 mph - N/A   Mostly Cloudy
7:51 PM 37.0 °F 34.5 °F 30.0 °F 76% 29.91 in 10.0 mi NNW 3.5 mph - N/A   Overcast
8:51 PM 35.1 °F 27.4 °F 28.9 °F 78% 29.90 in 10.0 mi NNW 10.4 mph - N/A   Scattered Clouds
9:51 PM 34.0 °F 25.5 °F 27.0 °F 75% 29.90 in 9.0 mi NW 11.5 mph - N/A   Partly Cloudy
10:51 PM 32.0 °F 24.8 °F 25.0 °F 75% 29.90 in 8.0 mi NW 8.1 mph - N/A   Partly Cloudy
11:51 PM 30.0 °F 22.4 °F 24.1 °F 79% 29.90 in 10.0 mi NNW 8.1 mph - N/A   Mostly Cloudy